This is the latest recevied weather packets stored in our database for station/object LU3HGB-WX. If no packets are shown the sender has not sent any weather packets the latest 10 day(s).
| Time | Temp. | Humidity | Pressure | Rain* | Wind** | Luminosity | Snow |
|---|---|---|---|---|---|---|---|
| 1777987661 | 16.11° C | 76% | 1014 hPa | 0 mm | - | 395 W/m² | - |
| 1777987361 | 15.56° C | 76% | 1014 hPa | 0 mm | - | 378 W/m² | - |
| 1777987059 | 15° C | 79% | 1014 hPa | 0 mm | - | 361 W/m² | - |
| 1777986760 | 14.44° C | 80% | 1014 hPa | 0 mm | - | 346 W/m² | - |
| 1777986459 | 14.44° C | 80% | 1014 hPa | 0 mm | - | 330 W/m² | - |
| 1777986159 | 13.89° C | 81% | 1014 hPa | 0 mm | - | 314 W/m² | - |
| 1777985860 | 13.33° C | 82% | 1014 hPa | 0 mm | - | 299 W/m² | - |
| 1777985559 | 12.78° C | 84% | 1014 hPa | 0 mm | - | 281 W/m² | - |
| 1777985259 | 12.22° C | 86% | 1014 hPa | 0 mm | - | 264 W/m² | - |
| 1777984960 | 11.67° C | 87% | 1013 hPa | 0 mm | - | 247 W/m² | - |
| 1777984660 | 11.67° C | 91% | 1013 hPa | 0 mm | - | 229 W/m² | - |
| 1777984360 | 11.11° C | 93% | 1013 hPa | 0 mm | - | 209 W/m² | - |
| 1777984063 | 11.11° C | 94% | 1013 hPa | 0 mm | - | 195 W/m² | - |
| 1777983759 | 10.56° C | 95% | 1013 hPa | 0 mm | - | 179 W/m² | - |
| 1777983459 | 10.56° C | 95% | 1012 hPa | 0 mm | - | 162 W/m² | - |
| 1777983161 | 10° C | 95% | 1012 hPa | 0 mm | - | 146 W/m² | - |
| 1777982860 | 9.44° C | 95% | 1013 hPa | 0 mm | - | 130 W/m² | - |
| 1777982560 | 8.89° C | 95% | 1013 hPa | 0 mm | - | 112 W/m² | - |
| 1777982260 | 8.33° C | 95% | 1013 hPa | 0 mm | - | 101 W/m² | - |
| 1777981960 | 7.78° C | 95% | 1013 hPa | 0 mm | - | 87 W/m² | - |
| 1777981660 | 7.22° C | 95% | 1013 hPa | 0 mm | - | 75 W/m² | - |
| 1777981360 | 7.22° C | 95% | 1013 hPa | 0 mm | - | 59 W/m² | - |
| 1777981059 | 7.22° C | 95% | 1013 hPa | 0 mm | - | 52 W/m² | - |
| 1777980760 | 7.22° C | 95% | 1013 hPa | 0 mm | - | 31 W/m² | - |
| 1777980460 | 7.22° C | 95% | 1013 hPa | 0 mm | - | 28 W/m² | - |
* Rain latest hour (hover to see other rain measurements)
** Current wind speed in m/s (hover to see current wind gust speed)